Location: Peebles
(55.6412°N, 3.1714°W)
Time: 14:05:50
(UTC+01:00)

ERS-1 Rocket - Pass Details

Date: 26 September 2021
Orbit: 753 x 757 km, 98.4° (Epoch: 17 October)

Event Time Altitude Azimuth Distance (km) Brightness Sun altitude
Exits shadow 20:59:16 20° 72° (ENE) 1,693 4.4 -17.2°
Maximum altitude 21:00:24 22° 53° (NE) 1,623 4.4 -17.3°
Drops below altitude 10° 21:04:12 10° 4° (N) 2,300 5.7 -17.8°
Sets 21:06:57 0° 350° (N) 3,230 6.8 -18.1°
